Weather History for De Queen, AR

Change the Weather History Date:

Sunday, November 30, 2014

  Actual Average Record
Temperature  
Mean Temperature 67 °F 46 °F  
Max Temperature 78 °F 59 °F 78 °F (2014)
Min Temperature 55 °F 33 °F 12 °F (1976)
Degree Days  
Heating Degree Days 0 19  
Month to date heating degree days 541 393  
Since 1 July heating degree days 622 526  
Cooling Degree Days 2 0  
Month to date cooling degree days 2 7  
Year to date cooling degree days 1712 1941  
Growing Degree Days 16 (Base 50)    
Moisture  
Dew Point 58 °F    
Average Humidity 74    
Maximum Humidity 100    
Minimum Humidity 48    
Precipitation  
Precipitation 0.00 in 0.14 in 1.65 in (1939)
Month to date precipitation 2.15 4.91  
Year to date precipitation 40.74 44.63  
Snow  
Snow 0.00 in - - ()
Month to date snowfall 0.5  
Since 1 July snowfall 0.5  
Since 1 September snowfall 0.5  
Snow Depth 0.00 in    
Sea Level Pressure  
Sea Level Pressure 29.97 in    
Wind  
Wind Speed 6 mph (SSW)    
Max Wind Speed 20 mph    
Max Gust Speed 26 mph    
Visibility 10 miles    
Events      
T = Trace of Precipitation, MM = Missing Value Source: NWS Daily Summary

Daily Weather History Graph

Daily Weather History Graph

Search for Another Location

Airport:

Trip Planner

Search our weather history database for the weather conditions in past years. The results will help you decide how hot, cold, wet, or windy it might be!

Date:

Astronomy

Nov. 30, 2014 Rise Set
Actual Time 7:04 AM CST 5:08 PM CST
Civil Twilight 6:36 AM CST 5:35 PM CST
Nautical Twilight 6:05 AM CST 6:06 PM CST
Astronomical Twilight 5:35 AM CST 6:36 PM CST
Moon 1:23 PM CST (11/30) 12:52 AM CST (11/30)
Length of Visible Light 10h 58m
Length of Day
10h 04m
Waxing Gibbous, 65% of the Moon is Illuminated
Nov 30
Waxing Gibbous
Dec 6
Full
Dec 14
Last Quarter
Dec 21
New
Dec 28
First Quarter

Hourly Weather History & Observations

Time (CST) Temp. Dew Point Humidity Pressure Visibility Wind Dir Wind Speed Gust Speed Precip Events Conditions
12:53 AM 61.0 °F 55.9 °F 83% 29.91 in 10.0 mi Calm Calm - N/A   Clear
1:23 AM 57.9 °F 55.0 °F 90% 29.93 in 10.0 mi Calm Calm - N/A   Mostly Cloudy
1:48 AM 57.2 °F 55.4 °F 94% 29.93 in 10.0 mi Calm Calm - N/A   Scattered Clouds
1:53 AM 55.9 °F 55.0 °F 97% 29.92 in 10.0 mi Calm Calm - N/A   Scattered Clouds
2:23 AM 60.1 °F 57.0 °F 90% 29.93 in 10.0 mi South 4.6 mph - N/A   Mostly Cloudy
2:50 AM 60.8 °F 57.2 °F 88% 29.94 in 10.0 mi Calm Calm - N/A   Partly Cloudy
2:53 AM 60.1 °F 57.0 °F 90% 29.92 in 10.0 mi Calm Calm - N/A   Partly Cloudy
3:24 AM 61.0 °F 57.9 °F 90% 29.93 in 10.0 mi SSW 4.6 mph - N/A   Mostly Cloudy
3:53 AM 62.1 °F 57.9 °F 86% 29.92 in 10.0 mi South 5.8 mph - N/A   Overcast
4:19 AM 62.1 °F 59.0 °F 90% 29.93 in 10.0 mi South 6.9 mph - N/A   Overcast
4:53 AM 62.1 °F 59.0 °F 90% 29.93 in 10.0 mi SSW 3.5 mph - N/A   Overcast
5:53 AM 63.0 °F 59.0 °F 87% 29.94 in 10.0 mi Calm Calm - N/A   Overcast
6:53 AM 63.0 °F 60.1 °F 90% 29.96 in 10.0 mi South 3.5 mph - N/A   Overcast
7:07 AM 63.0 °F 60.1 °F 90% 29.97 in 10.0 mi South 6.9 mph - N/A   Overcast
7:53 AM 64.0 °F 60.1 °F 87% 29.97 in 10.0 mi SSW 5.8 mph - N/A   Overcast
8:53 AM 66.0 °F 61.0 °F 84% 29.99 in 10.0 mi SSW 8.1 mph - N/A   Overcast
9:09 AM 66.9 °F 61.0 °F 81% 30.01 in 10.0 mi South 10.4 mph - N/A   Overcast
9:53 AM 69.1 °F 62.1 °F 78% 30.01 in 10.0 mi South 8.1 mph - N/A   Overcast
10:53 AM 71.1 °F 61.0 °F 70% 30.00 in 10.0 mi SW 10.4 mph 19.6 mph N/A   Overcast
11:04 AM 71.1 °F 61.0 °F 70% 30.01 in 10.0 mi SSW 13.8 mph 20.7 mph N/A   Overcast
11:38 AM 72.0 °F 61.0 °F 68% 29.99 in 10.0 mi SSW 12.7 mph 24.2 mph N/A   Mostly Cloudy
11:53 AM 73.0 °F 60.1 °F 64% 29.97 in 10.0 mi SSW 13.8 mph 21.9 mph N/A   Mostly Cloudy
12:53 PM 77.0 °F 60.1 °F 56% 29.94 in 10.0 mi SW 17.3 mph - N/A   Mostly Cloudy
1:53 PM 77.0 °F 59.0 °F 54% 29.94 in 10.0 mi SW 18.4 mph 26.5 mph N/A   Mostly Cloudy
2:53 PM 78.1 °F 57.9 °F 50% 29.94 in 10.0 mi SSW 11.5 mph 20.7 mph N/A   Scattered Clouds
3:53 PM 75.9 °F 57.9 °F 54% 29.96 in 10.0 mi SSW 15.0 mph 19.6 mph N/A   Partly Cloudy
4:53 PM 73.9 °F 57.9 °F 57% 29.97 in 10.0 mi South 6.9 mph - N/A   Mostly Cloudy
5:53 PM 71.1 °F 57.9 °F 63% 29.99 in 10.0 mi South 4.6 mph - N/A   Scattered Clouds
6:53 PM 62.1 °F 55.9 °F 80% 30.01 in 7.0 mi SSE 3.5 mph - N/A   Partly Cloudy
7:53 PM 62.1 °F 57.0 °F 84% 30.04 in 10.0 mi ESE 3.5 mph - N/A   Overcast
8:53 PM 66.9 °F 57.9 °F 73% 30.05 in 10.0 mi South 4.6 mph - N/A   Mostly Cloudy
9:53 PM 66.9 °F 57.9 °F 73% 30.06 in 10.0 mi South 3.5 mph - N/A   Scattered Clouds
10:53 PM 64.9 °F 57.9 °F 78% 30.07 in 10.0 mi South 6.9 mph - N/A   Partly Cloudy
11:53 PM 64.0 °F 57.9 °F 80% 30.09 in 10.0 mi Calm Calm - N/A   Clear